Main page
METAR-TAF:

METAR-TAF

Airports :

Sebring Regional Airport

Sebring, Florida, United States

latitude: 27-27-23N, longitude: 081-20-33W, elevation: 62 ft

Current weather observation

The report was made 15 minutes ago, at 08:55 UTC
Wind 6 mph from the North/Northeast
Temperature 75°F
Humidity 100%
Pressure 29.92 in. Hg
Visibility: 10 miles
Scattered clouds at a height of 3600 ft
Broken clouds at a height of 5000 ft

METAR: KSEF 240855Z AUTO 03005KT 10SM SCT036 BKN050 24/24 A2992 RMK AO2

Time: 05:10 (09:10 UTC)


TAF: missing

Weather observations and forecasts of more than 4000 airports (METAR and TAF reports).

The available stations are represented by yellow and red dots on the map.

Hover mouse over dot to see the name of the station.

Then click to see weather observations and forecasts.

To change the map : click on the green buttons with a black cross to zoom in, on the green button with a dash to zoom out, or on the green arrows for adjacent maps.


METAR-TAF: